GFSFLT1_prec_precacc_183.txt.gz
Total_Precipitation_Accumulation
0.03 0.08 0.04 0.04 0.17 0.43 0.86 0.92 1.08 1.10 0.79 0.64 0.62 0.72 0.79 0.83 0.76 0.78 0.98 1.09 1.05 1.14 1.36 1.60 1.59 1.46 1.19 0.99 1.09 1.24 1.23 1.08
0.04 0.07 0.08 0.06 0.12 0.37 0.48 0.72 0.89 0.61 0.38 0.33 0.38 0.45 0.51 0.84 0.84 0.55 0.78 0.98 0.94 0.84 1.13 1.97 2.14 1.36 0.90 0.94 1.21 1.21 1.09 0.96
0.01 0.03 0.05 0.08 0.16 0.38 0.47 0.32 0.27 0.29 0.29 0.18 0.15 0.21 0.32 0.64 0.95 0.69 0.72 0.81 0.76 0.88 0.69 0.82 1.40 1.71 1.55 1.09 1.08 1.35 1.24 1.18
0.02 0.04 0.04 0.06 0.08 0.12 0.24 0.13 0.07 0.07 0.11 0.14 0.14 0.18 0.34 1.03 1.33 1.00 0.74 0.78 0.75 0.79 0.74 0.67 0.81 1.47 1.55 1.17 0.82 0.95 1.35 1.30
0.00 0.00 0.00 0.03 0.03 0.05 0.23 0.13 0.06 0.05 0.05 0.06 0.09 0.14 0.17 0.51 1.04 0.94 0.74 1.02 0.96 0.80 0.92 0.96 0.83 0.81 1.15 1.14 0.92 0.84 1.33 1.22
0.01 0.01 0.00 0.00 0.06 0.08 0.20 0.16 0.16 0.09 0.11 0.17 0.31 0.25 0.17 0.25 0.90 1.23 0.98 0.99 1.17 1.18 1.13 1.25 1.22 1.29 0.96 1.45 1.37 1.26 1.39 1.08
0.04 0.02 0.02 0.02 0.02 0.11 0.19 0.15 0.24 0.26 0.31 0.27 0.31 0.36 0.24 0.22 0.53 1.08 1.37 1.23 1.24 1.22 1.20 1.18 1.06 1.10 1.25 1.45 1.81 1.78 1.79 1.56
0.09 0.06 0.06 0.07 0.05 0.17 0.19 0.17 0.26 0.31 0.36 0.25 0.27 0.38 0.47 0.50 0.48 0.82 1.32 1.64 1.46 0.97 1.05 1.04 0.95 0.78 0.88 1.19 1.61 1.80 2.14 2.23
0.16 0.16 0.18 0.21 0.20 0.22 0.34 0.31 0.43 0.39 0.30 0.35 0.40 0.45 0.53 0.64 0.54 0.73 1.24 1.19 1.04 0.80 0.97 1.10 1.06 1.07 1.06 0.97 1.13 1.15 1.25 1.64
0.19 0.21 0.24 0.28 0.30 0.29 0.34 0.35 0.58 0.61 0.57 0.61 0.56 0.51 0.53 0.52 0.53 0.52 0.74 0.93 1.08 1.01 1.11 1.14 1.17 1.09 1.07 1.07 1.00 1.03 1.08 1.12
0.27 0.27 0.31 0.32 0.34 0.37 0.54 0.40 0.37 0.56 0.72 0.72 0.57 0.65 0.79 0.66 0.63 0.68 0.82 1.15 1.29 1.38 1.38 1.27 1.27 1.31 1.31 1.29 1.20 1.13 1.23 1.12
0.53 0.61 0.51 0.57 0.57 0.56 0.68 0.77 0.86 0.89 0.85 0.76 0.79 0.95 1.26 1.21 1.12 1.10 1.17 1.48 1.68 1.49 1.48 1.65 1.52 1.65 1.65 1.63 1.48 1.33 1.32 1.28
0.41 0.96 1.11 1.06 1.06 1.20 1.04 0.98 1.11 1.21 1.15 1.21 1.68 2.03 2.13 1.99 1.91 2.01 1.67 1.36 1.24 1.12 1.24 1.32 1.27 1.47 1.66 1.65 1.54 1.40 1.39 1.55
0.24 0.47 0.78 1.32 0.84 1.16 0.97 0.98 1.31 1.56 1.69 1.83 2.01 2.17 2.20 2.29 2.26 2.02 1.76 1.77 1.72 1.57 1.69 1.74 1.45 1.33 1.57 1.64 1.63 1.46 1.48 1.58
0.30 0.35 0.44 0.56 0.80 1.39 2.08 1.03 1.24 1.53 1.62 1.44 1.57 1.96 2.00 1.97 1.79 1.55 1.31 1.34 1.31 1.29 1.19 1.22 1.23 1.17 1.25 1.44 1.60 1.69 1.40 1.40
0.30 0.40 0.49 0.52 0.55 0.58 0.78 0.74 1.25 1.76 1.63 1.50 1.74 1.69 1.72 1.75 1.66 1.29 1.04 1.08 1.08 0.97 0.78 0.88 0.97 1.09 1.43 1.36 1.42 1.58 1.54 1.38
0.25 0.31 0.36 0.42 0.54 0.70 0.71 0.70 1.03 1.28 1.51 1.83 1.47 1.89 1.92 1.49 1.48 1.30 1.16 1.09 1.09 1.25 1.05 1.09 1.36 1.43 1.74 1.72 1.62 1.72 1.61 1.50
0.20 0.27 0.30 0.37 0.40 0.34 0.39 0.50 0.62 0.73 1.19 2.01 1.98 2.15 2.94 2.15 1.36 1.36 1.27 1.55 1.43 1.30 1.53 1.45 1.34 1.30 1.73 1.74 1.86 1.66 1.99 1.89
0.22 0.21 0.28 0.32 0.28 0.23 0.20 0.20 0.29 0.38 0.39 0.85 1.54 1.64 2.30 3.04 2.33 1.95 2.03 1.67 1.55 1.26 1.22 1.19 1.16 1.72 1.80 2.15 2.44 2.10 1.81 1.87

GFSFLT1_prec_precacc_189.txt.gz
Total_Precipitation_Accumulation
0.03 0.08 0.04 0.04 0.17 0.43 0.86 0.92 1.08 1.10 0.79 0.65 0.63 0.73 0.79 0.84 0.77 0.81 1.04 1.10 1.05 1.15 1.36 1.60 1.59 1.46 1.19 0.99 1.09 1.24 1.23 1.08
0.04 0.07 0.08 0.06 0.12 0.37 0.48 0.72 0.89 0.61 0.39 0.34 0.39 0.46 0.52 0.85 0.89 0.62 0.85 1.03 0.96 0.84 1.13 1.97 2.14 1.36 0.90 0.94 1.21 1.21 1.09 0.96
0.01 0.03 0.05 0.08 0.16 0.38 0.47 0.32 0.27 0.29 0.29 0.18 0.15 0.21 0.32 0.66 0.98 0.72 0.75 0.84 0.80 0.91 0.70 0.82 1.40 1.71 1.55 1.09 1.08 1.35 1.24 1.18
0.02 0.04 0.04 0.06 0.08 0.12 0.24 0.13 0.07 0.07 0.11 0.14 0.14 0.19 0.36 1.06 1.35 1.02 0.77 0.81 0.79 0.84 0.77 0.69 0.83 1.47 1.55 1.18 0.82 0.95 1.35 1.30
0.00 0.00 0.00 0.03 0.03 0.05 0.23 0.13 0.06 0.05 0.05 0.06 0.09 0.15 0.18 0.52 1.05 0.96 0.78 1.07 1.00 0.85 0.97 0.99 0.86 0.82 1.16 1.14 0.92 0.84 1.33 1.22
0.01 0.01 0.00 0.00 0.06 0.08 0.20 0.16 0.16 0.09 0.12 0.17 0.31 0.25 0.17 0.26 0.91 1.25 1.01 1.05 1.23 1.24 1.17 1.27 1.24 1.30 0.97 1.45 1.37 1.26 1.39 1.08
0.04 0.02 0.02 0.02 0.02 0.11 0.19 0.15 0.24 0.26 0.31 0.28 0.31 0.36 0.25 0.23 0.53 1.09 1.41 1.27 1.30 1.28 1.25 1.21 1.09 1.11 1.25 1.46 1.81 1.78 1.79 1.56
0.09 0.06 0.06 0.07 0.05 0.17 0.19 0.17 0.26 0.31 0.37 0.27 0.29 0.38 0.47 0.51 0.53 0.88 1.39 1.71 1.53 1.04 1.13 1.09 0.99 0.80 0.90 1.20 1.63 1.81 2.15 2.24
0.16 0.16 0.18 0.21 0.20 0.22 0.34 0.31 0.43 0.39 0.31 0.37 0.41 0.47 0.54 0.65 0.56 0.76 1.28 1.25 1.12 0.89 1.05 1.16 1.10 1.08 1.07 0.98 1.14 1.16 1.26 1.65
0.19 0.21 0.24 0.28 0.30 0.29 0.34 0.35 0.58 0.61 0.58 0.63 0.57 0.53 0.57 0.53 0.55 0.57 0.82 1.01 1.14 1.08 1.20 1.24 1.26 1.16 1.12 1.11 1.03 1.04 1.08 1.13
0.27 0.27 0.31 0.32 0.34 0.37 0.54 0.41 0.38 0.57 0.74 0.74 0.61 0.71 0.84 0.70 0.67 0.76 0.91 1.27 1.42 1.55 1.53 1.37 1.35 1.35 1.34 1.32 1.22 1.14 1.23 1.12
0.53 0.61 0.51 0.57 0.57 0.56 0.68 0.77 0.87 0.91 0.88 0.81 0.89 1.09 1.39 1.32 1.19 1.16 1.27 1.66 1.86 1.75 1.80 1.95 1.78 1.80 1.72 1.67 1.51 1.35 1.33 1.29
0.41 0.96 1.11 1.06 1.07 1.21 1.06 1.00 1.13 1.24 1.19 1.26 1.75 2.13 2.26 2.10 2.02 2.12 1.81 1.56 1.55 1.53 1.70 1.76 1.68 1.80 1.88 1.80 1.65 1.48 1.44 1.59
0.24 0.47 0.78 1.32 0.85 1.19 1.03 1.05 1.41 1.70 1.82 1.97 2.17 2.35 2.38 2.52 2.46 2.22 1.96 1.99 2.01 1.90 2.09 2.19 1.88 1.80 2.03 2.03 1.89 1.63 1.62 1.67
0.30 0.35 0.44 0.56 0.80 1.43 2.21 1.21 1.48 1.80 1.91 1.76 1.89 2.27 2.30 2.31 2.17 1.88 1.60 1.59 1.55 1.60 1.52 1.52 1.50 1.43 1.48 1.66 1.82 1.88 1.50 1.44
0.30 0.40 0.49 0.52 0.55 0.58 0.79 0.85 1.53 2.18 2.04 1.87 2.10 2.03 2.01 2.02 1.93 1.56 1.26 1.25 1.23 1.11 0.94 1.07 1.14 1.23 1.54 1.42 1.47 1.60 1.55 1.39
0.25 0.31 0.36 0.42 0.54 0.70 0.71 0.71 1.16 1.67 1.98 2.37 1.98 2.28 2.20 1.72 1.68 1.49 1.36 1.26 1.20 1.35 1.15 1.19 1.45 1.50 1.80 1.75 1.64 1.73 1.61 1.51
0.20 0.27 0.30 0.37 0.40 0.34 0.40 0.50 0.64 0.85 1.57 2.58 2.53 2.76 3.59 2.52 1.66 1.68 1.66 1.88 1.71 1.54 1.72 1.63 1.53 1.44 1.80 1.76 1.87 1.66 2.00 1.90
0.22 0.22 0.29 0.32 0.28 0.23 0.20 0.21 0.30 0.39 0.44 1.07 2.16 2.41 3.09 3.86 2.93 2.38 2.44 2.19 2.10 1.69 1.58 1.49 1.37 1.89 1.88 2.17 2.45 2.10 1.82 1.87

GFSFLT1_prec_precacc_192.txt.gz
Total_Precipitation_Accumulation
0.03 0.08 0.04 0.04 0.17 0.43 0.86 0.92 1.08 1.10 0.80 0.66 0.64 0.74 0.81 0.85 0.79 0.82 1.06 1.13 1.07 1.15 1.37 1.60 1.59 1.46 1.19 0.99 1.09 1.24 1.23 1.08
0.04 0.07 0.08 0.06 0.12 0.37 0.48 0.72 0.89 0.62 0.39 0.34 0.39 0.46 0.52 0.86 0.90 0.63 0.86 1.04 0.98 0.87 1.15 1.97 2.15 1.36 0.90 0.94 1.21 1.21 1.09 0.96
0.01 0.03 0.05 0.08 0.16 0.38 0.47 0.32 0.27 0.31 0.31 0.18 0.15 0.21 0.32 0.66 0.98 0.73 0.76 0.85 0.81 0.93 0.72 0.83 1.41 1.72 1.55 1.09 1.08 1.35 1.24 1.18
0.02 0.04 0.04 0.06 0.08 0.12 0.24 0.13 0.07 0.07 0.12 0.16 0.16 0.19 0.36 1.06 1.35 1.03 0.78 0.81 0.80 0.86 0.80 0.71 0.87 1.51 1.56 1.18 0.83 0.95 1.35 1.30
0.00 0.00 0.00 0.03 0.03 0.05 0.23 0.13 0.06 0.05 0.06 0.10 0.13 0.16 0.18 0.52 1.05 0.96 0.78 1.07 1.02 0.87 1.00 1.01 0.89 0.86 1.17 1.15 0.93 0.85 1.33 1.22
0.01 0.01 0.00 0.00 0.06 0.08 0.20 0.16 0.16 0.09 0.12 0.19 0.34 0.27 0.20 0.27 0.91 1.25 1.01 1.05 1.23 1.25 1.19 1.29 1.27 1.34 0.99 1.48 1.40 1.27 1.40 1.09
0.04 0.02 0.02 0.02 0.02 0.11 0.19 0.15 0.24 0.26 0.31 0.29 0.34 0.38 0.29 0.28 0.56 1.10 1.41 1.27 1.31 1.29 1.27 1.25 1.12 1.14 1.27 1.48 1.84 1.79 1.80 1.57
0.09 0.06 0.06 0.07 0.05 0.17 0.19 0.17 0.26 0.31 0.37 0.27 0.30 0.41 0.52 0.56 0.57 0.94 1.41 1.72 1.54 1.05 1.15 1.13 1.06 0.84 0.93 1.24 1.65 1.83 2.17 2.26
0.16 0.16 0.18 0.21 0.20 0.22 0.34 0.31 0.43 0.39 0.31 0.37 0.41 0.47 0.56 0.68 0.60 0.81 1.33 1.26 1.12 0.90 1.09 1.20 1.15 1.14 1.11 1.03 1.18 1.18 1.26 1.66
0.19 0.21 0.24 0.28 0.30 0.29 0.34 0.35 0.58 0.61 0.58 0.63 0.57 0.53 0.58 0.56 0.58 0.61 0.85 1.03 1.15 1.10 1.23 1.29 1.30 1.20 1.17 1.15 1.07 1.08 1.10 1.13
0.27 0.27 0.31 0.32 0.34 0.37 0.54 0.41 0.38 0.57 0.74 0.74 0.61 0.71 0.85 0.74 0.73 0.83 0.95 1.31 1.46 1.58 1.59 1.44 1.41 1.43 1.43 1.40 1.28 1.19 1.29 1.19
0.53 0.61 0.51 0.57 0.57 0.56 0.68 0.77 0.87 0.91 0.88 0.82 0.89 1.09 1.40 1.36 1.31 1.28 1.37 1.75 1.95 1.84 1.89 2.05 1.86 1.89 1.86 1.78 1.60 1.40 1.36 1.31
0.41 0.96 1.11 1.06 1.07 1.21 1.06 1.00 1.13 1.24 1.19 1.26 1.75 2.13 2.27 2.17 2.16 2.35 2.17 1.89 1.76 1.65 1.81 1.86 1.76 1.91 2.03 1.91 1.74 1.55 1.49 1.62
0.24 0.47 0.78 1.32 0.85 1.19 1.03 1.05 1.41 1.70 1.82 1.98 2.18 2.35 2.40 2.57 2.58 2.38 2.22 2.47 2.65 2.37 2.26 2.27 1.97 1.92 2.20 2.19 2.03 1.74 1.71 1.77
0.30 0.35 0.44 0.56 0.80 1.43 2.21 1.21 1.48 1.80 1.91 1.76 1.89 2.30 2.36 2.38 2.25 2.01 1.77 1.85 1.91 2.01 1.78 1.70 1.64 1.57 1.62 1.83 2.02 2.12 1.76 1.68
0.30 0.40 0.49 0.52 0.55 0.58 0.79 0.85 1.53 2.18 2.04 1.87 2.11 2.09 2.12 2.16 2.07 1.69 1.42 1.41 1.36 1.30 1.16 1.23 1.26 1.31 1.61 1.52 1.61 1.84 1.84 1.69
0.25 0.31 0.36 0.42 0.54 0.70 0.71 0.71 1.17 1.67 1.98 2.37 1.98 2.31 2.32 1.91 1.91 1.67 1.52 1.43 1.35 1.46 1.24 1.26 1.51 1.54 1.86 1.85 1.77 1.93 1.90 1.79
0.20 0.27 0.30 0.37 0.40 0.34 0.40 0.50 0.64 0.85 1.57 2.58 2.53 2.80 3.73 2.70 1.82 1.83 1.80 2.01 1.88 1.68 1.80 1.72 1.64 1.57 1.98 1.94 2.03 1.85 2.19 2.05
0.22 0.22 0.29 0.32 0.28 0.23 0.20 0.21 0.30 0.39 0.44 1.07 2.18 2.47 3.22 4.07 3.12 2.54 2.63 2.40 2.32 1.95 1.80 1.70 1.58 2.10 2.17 2.46 2.69 2.28 1.95 1.94

GFSFLT1_prec_precacc_195.txt.gz
Total_Precipitation_Accumulation
0.03 0.08 0.04 0.04 0.17 0.43 0.86 0.92 1.08 1.10 0.80 0.66 0.64 0.74 0.81 0.88 0.81 0.84 1.08 1.15 1.08 1.16 1.37 1.60 1.59 1.46 1.19 0.99 1.10 1.25 1.23 1.08
0.04 0.07 0.08 0.06 0.12 0.37 0.48 0.72 0.89 0.64 0.40 0.34 0.39 0.47 0.53 0.87 0.91 0.64 0.87 1.06 1.01 0.87 1.15 1.98 2.15 1.36 0.91 0.94 1.22 1.22 1.09 0.96
0.01 0.03 0.05 0.08 0.16 0.38 0.47 0.32 0.27 0.31 0.32 0.20 0.16 0.21 0.33 0.66 0.99 0.74 0.78 0.87 0.84 0.95 0.74 0.85 1.41 1.73 1.56 1.10 1.09 1.35 1.24 1.18
0.02 0.04 0.04 0.06 0.08 0.12 0.24 0.13 0.07 0.07 0.12 0.16 0.17 0.20 0.37 1.08 1.38 1.06 0.80 0.85 0.83 0.90 0.84 0.74 0.89 1.53 1.57 1.19 0.83 0.96 1.35 1.30
0.00 0.00 0.00 0.03 0.03 0.05 0.23 0.13 0.06 0.05 0.06 0.10 0.13 0.18 0.20 0.54 1.07 0.98 0.80 1.10 1.05 0.91 1.05 1.05 0.91 0.88 1.19 1.17 0.95 0.86 1.34 1.22
0.01 0.01 0.00 0.00 0.06 0.08 0.20 0.16 0.16 0.09 0.12 0.19 0.34 0.27 0.21 0.30 0.94 1.28 1.04 1.09 1.27 1.29 1.23 1.33 1.33 1.37 1.01 1.50 1.41 1.29 1.40 1.09
0.04 0.02 0.02 0.02 0.02 0.11 0.19 0.15 0.24 0.26 0.31 0.29 0.34 0.38 0.29 0.28 0.58 1.13 1.42 1.30 1.34 1.33 1.33 1.32 1.22 1.21 1.31 1.51 1.86 1.82 1.82 1.58
0.09 0.06 0.06 0.07 0.05 0.17 0.19 0.17 0.26 0.31 0.37 0.27 0.30 0.41 0.52 0.56 0.57 0.94 1.43 1.74 1.56 1.08 1.20 1.22 1.17 0.95 1.01 1.28 1.69 1.88 2.21 2.27
0.16 0.16 0.18 0.21 0.20 0.22 0.34 0.31 0.43 0.39 0.31 0.37 0.41 0.47 0.56 0.68 0.60 0.81 1.33 1.27 1.13 0.91 1.11 1.24 1.23 1.26 1.26 1.16 1.24 1.24 1.34 1.70
0.19 0.21 0.24 0.28 0.30 0.29 0.34 0.35 0.58 0.61 0.58 0.63 0.57 0.53 0.58 0.56 0.58 0.61 0.85 1.03 1.15 1.10 1.25 1.33 1.38 1.32 1.32 1.33 1.20 1.16 1.18 1.19
0.27 0.27 0.31 0.32 0.34 0.37 0.54 0.41 0.38 0.57 0.74 0.74 0.61 0.71 0.85 0.74 0.73 0.83 0.95 1.31 1.46 1.59 1.61 1.50 1.51 1.56 1.61 1.58 1.45 1.32 1.42 1.30
0.53 0.61 0.51 0.57 0.57 0.56 0.68 0.77 0.87 0.91 0.88 0.82 0.89 1.09 1.40 1.36 1.31 1.28 1.37 1.75 1.95 1.86 1.94 2.15 1.99 2.02 2.02 1.98 1.82 1.54 1.45 1.40
0.41 0.96 1.11 1.06 1.07 1.21 1.06 1.00 1.13 1.24 1.19 1.26 1.75 2.13 2.27 2.17 2.16 2.35 2.17 1.90 1.80 1.74 1.94 2.05 1.99 2.15 2.26 2.12 2.01 1.74 1.57 1.68
0.24 0.47 0.78 1.32 0.85 1.19 1.03 1.05 1.41 1.70 1.82 1.98 2.18 2.35 2.40 2.58 2.58 2.38 2.22 2.49 2.75 2.56 2.58 2.66 2.38 2.31 2.55 2.55 2.41 2.04 1.83 1.85
0.30 0.35 0.44 0.56 0.80 1.43 2.21 1.21 1.48 1.80 1.91 1.76 1.89 2.30 2.36 2.38 2.25 2.01 1.78 1.87 2.01 2.23 2.19 2.16 2.12 2.11 2.15 2.36 2.43 2.41 1.96 1.78
0.30 0.40 0.49 0.52 0.55 0.58 0.79 0.85 1.53 2.18 2.04 1.87 2.11 2.09 2.12 2.16 2.07 1.71 1.43 1.46 1.44 1.43 1.40 1.59 1.66 1.75 1.99 1.88 1.91 2.11 2.06 1.87
0.25 0.31 0.36 0.42 0.54 0.70 0.71 0.71 1.17 1.67 1.98 2.37 1.99 2.31 2.32 1.91 1.93 1.70 1.55 1.50 1.43 1.56 1.37 1.45 1.72 1.76 2.08 1.99 1.89 2.05 2.06 2.11
0.20 0.27 0.30 0.37 0.40 0.34 0.40 0.50 0.64 0.85 1.57 2.58 2.53 2.80 3.73 2.70 1.84 1.89 1.88 2.11 1.98 1.80 1.94 1.85 1.78 1.70 2.17 2.12 2.15 1.93 2.28 2.19
0.22 0.22 0.29 0.32 0.28 0.23 0.20 0.21 0.30 0.39 0.44 1.07 2.18 2.47 3.23 4.09 3.18 2.64 2.73 2.51 2.45 2.08 1.95 1.88 1.74 2.26 2.34 2.62 2.87 2.45 2.11 2.10